Dades meteomassalio
Diari Summary for Maig 24, 2017 Units:  Metric    English   Both
« Previous Day
Next Day »
Diari Semanal Mensual Anual Personalitzat
  Maxima: Minima: Mijana:
Temperatura: 32.3 °C 13.2 °C 23.3 °C
Rosada: 12.8 °C 6.4 °C 9.8 °C
Humitat: 77 % 24 % 47 %
Velocitat del vent: 29.6 km/h 0.0 km/h 6.5 km/h
Racha vent: 29.6 km/h - -
Vent:- - SE
Pressio: 1020.5 hPa 1015.8 hPa -
Pluja: 0.0 mm    
Historical Graphs
 
 
Tabular Data for Maig 24, 2017
Time Temperature Dew Point Pressure Wind Wind Speed Wind Gust Humidity Rainfall Rate (Hourly) solar Conditions
00:04 20.4 °C 11.3 °C 1019.5 hPa Calm     56 % 0.0 mm 0.0 W/m2 CLR
00:09 20.2 °C 11.4 °C 1019.5 hPa Calm     57 % 0.0 mm 0.0 W/m2 CLR
00:14 19.8 °C 11.3 °C 1019.5 hPa Calm     58 % 0.0 mm 0.0 W/m2 CLR
00:19 19.6 °C 11.3 °C 1019.5 hPa Calm     59 % 0.0 mm 0.0 W/m2 CLR
00:24 19.4 °C 11.4 °C 1019.5 hPa Calm     60 % 0.0 mm 0.0 W/m2 CLR
00:29 19.1 °C 11.4 °C 1019.5 hPa Calm     61 % 0.0 mm 0.0 W/m2 CLR
00:34 18.9 °C 11.2 °C 1019.5 hPa Calm     61 % 0.0 mm 0.0 W/m2 CLR
00:39 18.7 °C 11.2 °C 1019.5 hPa Calm     62 % 0.0 mm 0.0 W/m2 CLR
00:44 18.5 °C 11.1 °C 1019.5 hPa Calm     62 % 0.0 mm 0.0 W/m2 CLR
00:49 18.4 °C 11.0 °C 1019.5 hPa Calm     62 % 0.0 mm 0.0 W/m2 CLR
00:54 18.5 °C 11.1 °C 1019.5 hPa SW 3.7 km/h 3.7 km/h 62 % 0.0 mm 0.0 W/m2 CLR
01:00 18.8 °C 11.2 °C 1019.5 hPa SW 5.6 km/h 5.6 km/h 61 % 0.0 mm 0.0 W/m2 CLR
01:05 18.7 °C 11.1 °C 1019.5 hPa Calm     61 % 0.0 mm 0.0 W/m2 CLR
01:10 18.3 °C 11.1 °C 1019.9 hPa Calm     63 % 0.0 mm 0.0 W/m2 CLR
01:15 17.8 °C 10.9 °C 1019.9 hPa Calm     64 % 0.0 mm 0.0 W/m2 CLR
01:20 17.5 °C 10.8 °C 1019.5 hPa Calm     65 % 0.0 mm 0.0 W/m2 CLR
01:25 17.4 °C 10.9 °C 1019.5 hPa SW 3.7 km/h 3.7 km/h 66 % 0.0 mm 0.0 W/m2 CLR
01:30 17.4 °C 10.9 °C 1019.5 hPa Calm     66 % 0.0 mm 0.0 W/m2 CLR
01:35 17.3 °C 10.9 °C 1019.5 hPa Calm     66 % 0.0 mm 0.0 W/m2 CLR
01:40 17.2 °C 11.0 °C 1019.9 hPa Calm     67 % 0.0 mm 0.0 W/m2 CLR
01:45 17.0 °C 10.8 °C 1019.9 hPa Calm     67 % 0.0 mm 0.0 W/m2 CLR
01:50 16.9 °C 10.9 °C 1019.5 hPa Calm     68 % 0.0 mm 0.0 W/m2 CLR
01:55 16.7 °C 10.8 °C 1019.5 hPa Calm     68 % 0.0 mm 0.0 W/m2 CLR
02:00 16.7 °C 10.7 °C 1019.5 hPa Calm     68 % 0.0 mm 0.0 W/m2 CLR
02:05 16.6 °C 10.7 °C 1019.5 hPa Calm     68 % 0.0 mm 0.0 W/m2 CLR
02:10 16.6 °C 10.6 °C 1019.5 hPa Calm     68 % 0.0 mm 0.0 W/m2 CLR
02:15 16.4 °C 10.7 °C 1019.5 hPa Calm     69 % 0.0 mm 0.0 W/m2 CLR
02:20 16.3 °C 10.6 °C 1019.5 hPa Calm     69 % 0.0 mm 0.0 W/m2 CLR
02:25 16.2 °C 10.5 °C 1019.5 hPa Calm     69 % 0.0 mm 0.0 W/m2 CLR
02:30 16.1 °C 10.6 °C 1019.5 hPa Calm     70 % 0.0 mm 0.0 W/m2 CLR
02:35 15.9 °C 10.5 °C 1019.5 hPa Calm     70 % 0.0 mm 0.0 W/m2 CLR
02:40 15.8 °C 10.6 °C 1019.5 hPa Calm     71 % 0.0 mm 0.0 W/m2 CLR
02:45 15.8 °C 10.6 °C 1019.2 hPa Calm     71 % 0.0 mm 0.0 W/m2 CLR
02:50 15.7 °C 10.7 °C 1019.5 hPa Calm     72 % 0.0 mm 0.0 W/m2 CLR
02:55 15.7 °C 10.4 °C 1019.5 hPa Calm     71 % 0.0 mm 0.0 W/m2 CLR
03:00 15.6 °C 10.6 °C 1019.5 hPa Calm     72 % 0.0 mm 0.0 W/m2 CLR
03:10 15.5 °C 10.4 °C 1019.5 hPa Calm     72 % 0.0 mm 0.0 W/m2 CLR
03:15 15.4 °C 10.4 °C 1019.5 hPa Calm     72 % 0.0 mm 0.0 W/m2 CLR
03:20 15.2 °C 10.4 °C 1019.5 hPa Calm     73 % 0.0 mm 0.0 W/m2 CLR
03:25 15.2 °C 10.3 °C 1019.5 hPa Calm     73 % 0.0 mm 0.0 W/m2 CLR
03:30 15.1 °C 10.3 °C 1019.5 hPa Calm     73 % 0.0 mm 0.0 W/m2 CLR
03:35 15.0 °C 10.2 °C 1019.5 hPa Calm     73 % 0.0 mm 0.0 W/m2 CLR
03:40 14.9 °C 10.3 °C 1019.5 hPa Calm     74 % 0.0 mm 0.0 W/m2 CLR
03:45 14.8 °C 10.2 °C 1019.5 hPa Calm     74 % 0.0 mm 0.0 W/m2 CLR
03:50 14.7 °C 10.1 °C 1019.2 hPa Calm     74 % 0.0 mm 0.0 W/m2 CLR
03:55 14.6 °C 10.2 °C 1019.5 hPa Calm     75 % 0.0 mm 0.0 W/m2 CLR
04:00 14.5 °C 10.1 °C 1019.5 hPa Calm     75 % 0.0 mm 0.0 W/m2 CLR
04:05 14.5 °C 10.1 °C 1019.5 hPa Calm     75 % 0.0 mm 0.0 W/m2 CLR
04:10 14.6 °C 10.2 °C 1019.5 hPa Calm     75 % 0.0 mm 0.0 W/m2 CLR
04:15 14.7 °C 10.3 °C 1019.5 hPa Calm     75 % 0.0 mm 0.0 W/m2 CLR
04:20 14.8 °C 10.2 °C 1019.5 hPa Calm     74 % 0.0 mm 0.0 W/m2 CLR
04:25 15.0 °C 10.2 °C 1019.5 hPa Calm     73 % 0.0 mm 0.0 W/m2 CLR
04:30 15.2 °C 10.2 °C 1019.5 hPa Calm     72 % 0.0 mm 0.0 W/m2 CLR
04:35 15.3 °C 10.3 °C 1019.5 hPa Calm     72 % 0.0 mm 0.0 W/m2 CLR
04:40 15.3 °C 10.1 °C 1019.5 hPa Calm     71 % 0.0 mm 0.0 W/m2 CLR
04:45 15.3 °C 10.1 °C 1019.5 hPa Calm     71 % 0.0 mm 0.0 W/m2 CLR
04:50 15.2 °C 10.2 °C 1019.5 hPa Calm     72 % 0.0 mm 0.0 W/m2 CLR
04:55 15.0 °C 10.0 °C 1019.5 hPa Calm     72 % 0.0 mm 0.0 W/m2 CLR
05:00 14.8 °C 10.0 °C 1019.5 hPa Calm     73 % 0.0 mm 0.0 W/m2 CLR
05:05 14.6 °C 10.0 °C 1019.5 hPa Calm     74 % 0.0 mm 0.0 W/m2 CLR
05:10 14.4 °C 9.8 °C 1019.5 hPa Calm     74 % 0.0 mm 0.0 W/m2 CLR
05:15 14.3 °C 9.9 °C 1019.5 hPa Calm     75 % 0.0 mm 0.0 W/m2 CLR
05:20 14.2 °C 9.8 °C 1019.5 hPa Calm     75 % 0.0 mm 0.0 W/m2 CLR
05:25 14.2 °C 9.8 °C 1019.9 hPa Calm     75 % 0.0 mm 0.0 W/m2 CLR
05:30 14.1 °C 9.7 °C 1019.5 hPa Calm     75 % 0.0 mm 0.0 W/m2 CLR
05:35 13.9 °C 9.8 °C 1019.9 hPa Calm     76 % 0.0 mm 0.0 W/m2 CLR
05:40 13.8 °C 9.7 °C 1019.9 hPa Calm     76 % 0.0 mm 0.0 W/m2 CLR
05:45 13.9 °C 9.7 °C 1019.9 hPa Calm     76 % 0.0 mm 0.0 W/m2 CLR
05:50 14.0 °C 9.6 °C 1019.9 hPa Calm     75 % 0.0 mm 0.0 W/m2 CLR
05:55 14.0 °C 9.6 °C 1019.9 hPa Calm     75 % 0.0 mm 0.0 W/m2 CLR
06:00 13.9 °C 9.7 °C 1019.9 hPa Calm     76 % 0.0 mm 0.0 W/m2 CLR
06:05 13.7 °C 9.5 °C 1019.9 hPa Calm     76 % 0.0 mm 0.0 W/m2 CLR
06:10 13.6 °C 9.4 °C 1019.9 hPa Calm     76 % 0.0 mm 0.0 W/m2 CLR
06:15 13.4 °C 9.5 °C 1019.9 hPa Calm     77 % 0.0 mm 0.0 W/m2 CLR
06:20 13.4 °C 9.4 °C 1019.9 hPa Calm     77 % 0.0 mm 0.0 W/m2 CLR
06:25 13.4 °C 9.5 °C 1019.9 hPa Calm     77 % 0.0 mm 0.0 W/m2 OVC
06:30 13.4 °C 9.3 °C 1019.9 hPa Calm     76 % 0.0 mm 0.0 W/m2 OVC
06:35 13.4 °C 9.2 °C 1019.9 hPa Calm     76 % 0.0 mm 5.0 W/m2 OVC
06:40 13.4 °C 9.2 °C 1019.9 hPa Calm     76 % 0.0 mm 7.0 W/m2 BKN
06:45 13.3 °C 9.2 °C 1019.9 hPa Calm     76 % 0.0 mm 9.0 W/m2 BKN
06:50 13.2 °C 9.1 °C 1019.9 hPa Calm     76 % 0.0 mm 12.0 W/m2 BKN
06:56 13.2 °C 9.1 °C 1019.9 hPa Calm     76 % 0.0 mm 16.0 W/m2 BKN
07:01 13.2 °C 9.1 °C 1020.2 hPa Calm     76 % 0.0 mm 18.0 W/m2 BKN
07:06 13.2 °C 9.1 °C 1020.2 hPa Calm     76 % 0.0 mm 21.0 W/m2 BKN
07:11 13.3 °C 9.3 °C 1020.2 hPa Calm     77 % 0.0 mm 28.0 W/m2 BKN
07:16 13.4 °C 9.2 °C 1020.2 hPa Calm     76 % 0.0 mm 37.0 W/m2 BKN
07:21 13.5 °C 9.3 °C 1020.2 hPa Calm     76 % 0.0 mm 47.0 W/m2 SCT
07:26 13.7 °C 9.3 °C 1020.2 hPa Calm     75 % 0.0 mm 56.0 W/m2 SCT
07:31 13.9 °C 9.3 °C 1020.2 hPa Calm     74 % 0.0 mm 70.0 W/m2 FEW
07:36 14.1 °C 9.5 °C 1020.2 hPa Calm     74 % 0.0 mm 83.0 W/m2 FEW
07:41 14.3 °C 9.6 °C 1020.5 hPa Calm     73 % 0.0 mm 95.0 W/m2 FEW
07:46 14.6 °C 9.6 °C 1020.5 hPa Calm     72 % 0.0 mm 109.0 W/m2 CLR
07:51 14.9 °C 9.9 °C 1020.5 hPa Calm     72 % 0.0 mm 123.0 W/m2 CLR
07:56 15.4 °C 9.9 °C 1020.5 hPa Calm     70 % 0.0 mm 144.0 W/m2 CLR
08:01 15.8 °C 10.2 °C 1020.5 hPa Calm     69 % 0.0 mm 158.0 W/m2 CLR
08:06 16.2 °C 10.3 °C 1020.5 hPa Calm     68 % 0.0 mm 174.0 W/m2 CLR
08:11 16.7 °C 10.3 °C 1020.5 hPa Calm     66 % 0.0 mm 193.0 W/m2 CLR
08:16 17.1 °C 10.4 °C 1020.5 hPa Calm     65 % 0.0 mm 213.0 W/m2 CLR
08:21 17.4 °C 10.3 °C 1020.5 hPa Calm     63 % 0.0 mm 229.0 W/m2 CLR
08:26 17.7 °C 10.3 °C 1020.5 hPa Calm     62 % 0.0 mm 243.0 W/m2 CLR
08:31 18.1 °C 10.7 °C 1020.5 hPa Calm     62 % 0.0 mm 257.0 W/m2 CLR
08:36 18.6 °C 10.6 °C 1020.5 hPa Calm     60 % 0.0 mm 274.0 W/m2 CLR
08:41 18.8 °C 10.9 °C 1020.5 hPa Calm     60 % 0.0 mm 288.0 W/m2 CLR
08:46 19.1 °C 10.8 °C 1020.5 hPa Calm     59 % 0.0 mm 304.0 W/m2 CLR
08:51 19.4 °C 11.2 °C 1020.5 hPa Calm     59 % 0.0 mm 320.0 W/m2 CLR
08:56 19.7 °C 11.4 °C 1020.5 hPa Calm     59 % 0.0 mm 332.0 W/m2 CLR
09:01 19.9 °C 11.4 °C 1020.5 hPa Calm     58 % 0.0 mm 352.0 W/m2 CLR
09:06 20.2 °C 11.4 °C 1020.5 hPa Calm     57 % 0.0 mm 366.0 W/m2 CLR
09:11 20.6 °C 11.4 °C 1020.5 hPa Calm     56 % 0.0 mm 380.0 W/m2 CLR
09:16 21.0 °C 11.9 °C 1020.5 hPa Calm     56 % 0.0 mm 392.0 W/m2 CLR
09:21 21.4 °C 11.7 °C 1020.5 hPa Calm     54 % 0.0 mm 276.0 W/m2 CLR
09:26 21.8 °C 12.1 °C 1020.2 hPa Calm     54 % 0.0 mm 475.0 W/m2 CLR
09:31 22.4 °C 12.6 °C 1020.5 hPa Calm     54 % 0.0 mm 510.0 W/m2 CLR
09:36 22.9 °C 12.5 °C 1020.5 hPa Calm     52 % 0.0 mm 336.0 W/m2 CLR
09:41 23.1 °C 12.4 °C 1020.2 hPa Calm     51 % 0.0 mm 471.0 W/m2 CLR
09:46 23.5 °C 12.8 °C 1020.5 hPa Calm     51 % 0.0 mm 712.0 W/m2 CLR
09:51 23.9 °C 12.5 °C 1020.5 hPa Calm     49 % 0.0 mm 654.0 W/m2 CLR
09:56 24.0 °C 12.3 °C 1020.2 hPa Calm     48 % 0.0 mm 434.0 W/m2 CLR
10:01 24.1 °C 12.4 °C 1020.2 hPa Calm     48 % 0.0 mm 294.0 W/m2 CLR
10:06 24.2 °C 12.5 °C 1020.2 hPa NNW 9.7 km/h 9.7 km/h 48 % 0.0 mm 292.0 W/m2 CLR
10:11 24.1 °C 12.4 °C 1020.2 hPa NNW 7.4 km/h 7.4 km/h 48 % 0.0 mm 281.0 W/m2 CLR
10:16 24.1 °C 12.1 °C 1020.2 hPa NW 5.6 km/h 5.6 km/h 47 % 0.0 mm 468.0 W/m2 CLR
10:21 24.1 °C 12.4 °C 1020.2 hPa Calm     48 % 0.0 mm 657.0 W/m2 CLR
10:26 24.3 °C 12.2 °C 1020.2 hPa Calm     47 % 0.0 mm 615.0 W/m2 CLR
10:31 24.4 °C 12.1 °C 1019.9 hPa Calm     46 % 0.0 mm 624.0 W/m2 CLR
10:36 24.9 °C 12.2 °C 1019.9 hPa Calm     45 % 0.0 mm 643.0 W/m2 CLR
10:41 25.3 °C 11.1 °C 1019.9 hPa NNE 1.9 km/h 1.9 km/h 41 % 0.0 mm 654.0 W/m2 CLR
10:46 25.6 °C 11.7 °C 1019.9 hPa NNE 7.4 km/h 7.4 km/h 42 % 0.0 mm 668.0 W/m2 CLR
10:51 25.8 °C 11.6 °C 1019.9 hPa North 1.9 km/h 1.9 km/h 41 % 0.0 mm 679.0 W/m2 CLR
10:56 25.8 °C 11.5 °C 1019.9 hPa NW 1.6 km/h 1.6 km/h 41 % 0.0 mm 693.0 W/m2 CLR
11:01 25.8 °C 11.2 °C 1019.5 hPa Calm     40 % 0.0 mm 705.0 W/m2 CLR
11:06 26.2 °C 11.1 °C 1019.9 hPa SE 3.7 km/h 3.7 km/h 39 % 0.0 mm 721.0 W/m2 CLR
11:11 26.6 °C 11.4 °C 1019.5 hPa Calm     39 % 0.0 mm 735.0 W/m2 CLR
11:16 26.8 °C 11.7 °C 1019.5 hPa ENE 5.6 km/h 5.6 km/h 39 % 0.0 mm 744.0 W/m2 CLR
11:22 26.8 °C 10.9 °C 1019.5 hPa ENE 7.4 km/h 7.4 km/h 37 % 0.0 mm 758.0 W/m2 CLR
11:27 27.1 °C 11.6 °C 1019.5 hPa Calm     38 % 0.0 mm 765.0 W/m2 CLR
11:32 27.5 °C 10.7 °C 1019.5 hPa East 3.2 km/h 3.2 km/h 35 % 0.0 mm 779.0 W/m2 CLR
11:37 27.7 °C 10.8 °C 1019.5 hPa ESE 5.6 km/h 5.6 km/h 35 % 0.0 mm 789.0 W/m2 CLR
11:42 27.3 °C 10.5 °C 1019.5 hPa Calm     35 % 0.0 mm 795.0 W/m2 CLR
11:47 27.7 °C 9.9 °C 1019.2 hPa NE 9.3 km/h 9.3 km/h 33 % 0.0 mm 807.0 W/m2 CLR
11:52 27.6 °C 9.9 °C 1019.5 hPa NNE 9.3 km/h 9.3 km/h 33 % 0.0 mm 814.0 W/m2 CLR
11:57 27.6 °C 9.8 °C 1019.5 hPa SE 3.2 km/h 3.2 km/h 33 % 0.0 mm 826.0 W/m2 CLR
12:02 27.8 °C 9.6 °C 1019.5 hPa NE 7.4 km/h 7.4 km/h 32 % 0.0 mm 831.0 W/m2 CLR
12:07 27.8 °C 9.1 °C 1019.2 hPa Calm     31 % 0.0 mm 840.0 W/m2 CLR
12:12 27.9 °C 10.2 °C 1019.2 hPa East 5.6 km/h 5.6 km/h 33 % 0.0 mm 851.0 W/m2 CLR
12:17 28.2 °C 9.9 °C 1019.2 hPa ENE 9.3 km/h 9.3 km/h 32 % 0.0 mm 858.0 W/m2 CLR
12:22 28.5 °C 10.2 °C 1019.2 hPa NE 8.0 km/h 8.0 km/h 32 % 0.0 mm 867.0 W/m2 CLR
12:27 28.6 °C 10.3 °C 1019.2 hPa ENE 5.6 km/h 5.6 km/h 32 % 0.0 mm 874.0 W/m2 CLR
12:32 28.7 °C 10.4 °C 1018.8 hPa ENE 9.3 km/h 9.3 km/h 32 % 0.0 mm 881.0 W/m2 CLR
12:37 28.8 °C 10.0 °C 1018.8 hPa Calm     31 % 0.0 mm 882.0 W/m2 CLR
12:42 28.9 °C 10.1 °C 1018.8 hPa Calm     31 % 0.0 mm 888.0 W/m2 CLR
12:47 29.4 °C 10.9 °C 1018.8 hPa NE 8.0 km/h 8.0 km/h 32 % 0.0 mm 896.0 W/m2 CLR
12:52 29.7 °C 10.7 °C 1018.5 hPa ENE 16.7 km/h 16.7 km/h 31 % 0.0 mm 902.0 W/m2 CLR
12:57 29.6 °C 10.2 °C 1018.5 hPa Calm     30 % 0.0 mm 907.0 W/m2 CLR
13:02 29.3 °C 10.4 °C 1018.5 hPa Calm     31 % 0.0 mm 907.0 W/m2 CLR
13:07 29.7 °C 10.3 °C 1018.5 hPa ENE 11.1 km/h 11.1 km/h 30 % 0.0 mm 912.0 W/m2 CLR
13:12 29.7 °C 10.7 °C 1018.5 hPa North 7.4 km/h 7.4 km/h 31 % 0.0 mm 918.0 W/m2 CLR
13:17 29.7 °C 10.8 °C 1018.2 hPa Calm     31 % 0.0 mm 918.0 W/m2 CLR
13:22 29.6 °C 9.7 °C 1018.2 hPa North 9.7 km/h 9.7 km/h 29 % 0.0 mm 923.0 W/m2 CLR
13:27 29.4 °C 9.6 °C 1018.2 hPa NNW 5.6 km/h 5.6 km/h 29 % 0.0 mm 926.0 W/m2 CLR
13:32 29.5 °C 9.1 °C 1018.2 hPa NNE 11.1 km/h 11.1 km/h 28 % 0.0 mm 928.0 W/m2 CLR
13:37 29.6 °C 9.1 °C 1018.2 hPa NW 9.3 km/h 9.3 km/h 28 % 0.0 mm 930.0 W/m2 CLR
13:42 29.7 °C 9.3 °C 1017.8 hPa North 6.4 km/h 6.4 km/h 28 % 0.0 mm 932.0 W/m2 CLR
13:47 29.9 °C 9.4 °C 1017.8 hPa NE 13.0 km/h 13.0 km/h 28 % 0.0 mm 935.0 W/m2 CLR
13:53 30.4 °C 9.3 °C 1017.8 hPa East 6.4 km/h 6.4 km/h 27 % 0.0 mm 933.0 W/m2 CLR
13:58 30.6 °C 9.4 °C 1017.8 hPa ENE 11.1 km/h 11.1 km/h 27 % 0.0 mm 935.0 W/m2 CLR
14:03 30.5 °C 9.9 °C 1017.8 hPa East 16.1 km/h 16.1 km/h 28 % 0.0 mm 932.0 W/m2 CLR
14:08 30.2 °C 9.7 °C 1017.8 hPa NNE 9.3 km/h 9.3 km/h 28 % 0.0 mm 932.0 W/m2 CLR
14:13 30.4 °C 9.9 °C 1017.8 hPa ENE 14.5 km/h 14.5 km/h 28 % 0.0 mm 932.0 W/m2 CLR
14:18 30.4 °C 9.8 °C 1017.8 hPa NNW 14.8 km/h 14.8 km/h 28 % 0.0 mm 930.0 W/m2 CLR
14:23 30.6 °C 9.5 °C 1017.5 hPa NNE 14.8 km/h   27 % 0.0 mm 928.0 W/m2 CLR
14:28 30.8 °C 9.6 °C 1017.5 hPa NNW 16.7 km/h 16.7 km/h 27 % 0.0 mm 925.0 W/m2 CLR
14:33 30.7 °C 9.6 °C 1017.5 hPa North 7.4 km/h 7.4 km/h 27 % 0.0 mm 925.0 W/m2 CLR
14:38 30.6 °C 9.4 °C 1017.5 hPa Calm     27 % 0.0 mm 916.0 W/m2 CLR
14:43 30.8 °C 9.7 °C 1017.5 hPa Calm     27 % 0.0 mm 909.0 W/m2 CLR
14:48 31.1 °C 9.3 °C 1017.5 hPa ESE 3.2 km/h 3.2 km/h 26 % 0.0 mm 914.0 W/m2 CLR
14:53 31.4 °C 9.6 °C 1017.2 hPa ENE 5.6 km/h 5.6 km/h 26 % 0.0 mm 896.0 W/m2 CLR
14:58 31.7 °C 9.2 °C 1017.2 hPa ESE 14.8 km/h 14.8 km/h 25 % 0.0 mm 909.0 W/m2 CLR
15:03 31.3 °C 9.5 °C 1017.2 hPa ESE 11.1 km/h 11.1 km/h 26 % 0.0 mm 904.0 W/m2 CLR
15:08 31.2 °C 9.4 °C 1017.2 hPa SE 5.6 km/h 5.6 km/h 26 % 0.0 mm 895.0 W/m2 CLR
15:13 31.4 °C 9.6 °C 1016.8 hPa SW 1.9 km/h 1.9 km/h 26 % 0.0 mm 888.0 W/m2 CLR
15:18 31.6 °C 9.2 °C 1016.8 hPa SW 6.4 km/h 6.4 km/h 25 % 0.0 mm 884.0 W/m2 CLR
15:23 31.6 °C 9.1 °C 1016.8 hPa SSW 9.3 km/h 9.3 km/h 25 % 0.0 mm 877.0 W/m2 CLR
15:28 31.6 °C 9.1 °C 1016.8 hPa Calm     25 % 0.0 mm 867.0 W/m2 CLR
15:33 31.9 °C 9.4 °C 1016.5 hPa NE 5.6 km/h 5.6 km/h 25 % 0.0 mm 858.0 W/m2 CLR
15:38 32.3 °C 9.8 °C 1016.5 hPa ESE 11.1 km/h 11.1 km/h 25 % 0.0 mm 849.0 W/m2 CLR
15:43 32.1 °C 9.6 °C 1016.5 hPa SE 22.2 km/h 22.2 km/h 25 % 0.0 mm 844.0 W/m2 CLR
15:48 31.4 °C 9.6 °C 1016.5 hPa South 22.2 km/h 22.2 km/h 26 % 0.0 mm 782.0 W/m2 CLR
15:53 31.5 °C 9.7 °C 1016.5 hPa ENE 14.8 km/h 14.8 km/h 26 % 0.0 mm 831.0 W/m2 CLR
15:58 31.6 °C 9.7 °C 1016.5 hPa East 18.5 km/h 18.5 km/h 26 % 0.0 mm 817.0 W/m2 CLR
16:03 31.6 °C 9.8 °C 1016.5 hPa South 14.5 km/h 14.5 km/h 26 % 0.0 mm 810.0 W/m2 CLR
16:08 31.2 °C 9.4 °C 1016.5 hPa SE 18.5 km/h 18.5 km/h 26 % 0.0 mm 802.0 W/m2 CLR
16:13 31.1 °C 9.9 °C 1016.5 hPa ENE 11.1 km/h 11.1 km/h 27 % 0.0 mm 796.0 W/m2 CLR
16:18 31.2 °C 9.4 °C 1016.5 hPa East 18.5 km/h 18.5 km/h 26 % 0.0 mm 786.0 W/m2 CLR
16:23 31.4 °C 9.6 °C 1016.1 hPa ESE 20.9 km/h 20.9 km/h 26 % 0.0 mm 777.0 W/m2 CLR
16:28 31.2 °C 9.4 °C 1016.1 hPa East 14.8 km/h 14.8 km/h 26 % 0.0 mm 770.0 W/m2 CLR
16:33 31.1 °C 9.3 °C 1016.1 hPa SE 24.1 km/h 24.1 km/h 26 % 0.0 mm 758.0 W/m2 CLR
16:38 31.1 °C 9.3 °C 1016.1 hPa SE 20.4 km/h 20.4 km/h 26 % 0.0 mm 742.0 W/m2 CLR
16:43 31.1 °C 9.3 °C 1016.1 hPa ESE 14.8 km/h 14.8 km/h 26 % 0.0 mm 729.0 W/m2 CLR
16:48 31.0 °C 9.2 °C 1016.1 hPa ESE 18.5 km/h 18.5 km/h 26 % 0.0 mm 719.0 W/m2 CLR
16:53 30.9 °C 9.2 °C 1016.1 hPa ESE 20.4 km/h 20.4 km/h 26 % 0.0 mm 708.0 W/m2 CLR
16:58 30.7 °C 8.9 °C 1016.1 hPa SE 22.2 km/h 22.2 km/h 26 % 0.0 mm 694.0 W/m2 CLR
17:03 30.8 °C 9.1 °C 1016.1 hPa SE 22.2 km/h 22.2 km/h 26 % 0.0 mm 682.0 W/m2 CLR
17:08 30.4 °C 9.3 °C 1016.1 hPa SSE 18.5 km/h 18.5 km/h 27 % 0.0 mm 670.0 W/m2 CLR
17:13 30.5 °C 9.9 °C 1015.8 hPa SE 11.1 km/h 11.1 km/h 28 % 0.0 mm 657.0 W/m2 CLR
17:18 30.5 °C 9.9 °C 1016.1 hPa SE 29.6 km/h 29.6 km/h 28 % 0.0 mm 645.0 W/m2 CLR
17:23 30.2 °C 10.2 °C 1015.8 hPa ESE 27.8 km/h 27.8 km/h 29 % 0.0 mm 631.0 W/m2 CLR
17:28 30.3 °C 10.3 °C 1015.8 hPa SE 18.5 km/h 18.5 km/h 29 % 0.0 mm 619.0 W/m2 CLR
17:33 30.3 °C 9.7 °C 1015.8 hPa ESE 29.6 km/h 29.6 km/h 28 % 0.0 mm 606.0 W/m2 CLR
17:38 30.4 °C 9.8 °C 1015.8 hPa SE 25.9 km/h 25.9 km/h 28 % 0.0 mm 592.0 W/m2 CLR
17:43 30.4 °C 9.8 °C 1015.8 hPa ESE 17.7 km/h 17.7 km/h 28 % 0.0 mm 578.0 W/m2 CLR
17:48 30.4 °C 9.3 °C 1015.8 hPa ESE 22.2 km/h 22.2 km/h 27 % 0.0 mm 566.0 W/m2 CLR
17:53 30.4 °C 9.3 °C 1015.8 hPa ESE 19.3 km/h 19.3 km/h 27 % 0.0 mm 550.0 W/m2 CLR
17:58 30.3 °C 9.2 °C 1015.8 hPa East 18.5 km/h 18.5 km/h 27 % 0.0 mm 536.0 W/m2 CLR
18:03 30.3 °C 8.7 °C 1015.8 hPa SE 18.5 km/h 18.5 km/h 26 % 0.0 mm 519.0 W/m2 CLR
18:08 30.3 °C 9.2 °C 1015.8 hPa East 19.3 km/h 19.3 km/h 27 % 0.0 mm 504.0 W/m2 CLR
18:13 30.3 °C 8.7 °C 1015.8 hPa East 18.5 km/h 18.5 km/h 26 % 0.0 mm 489.0 W/m2 CLR
18:18 30.1 °C 8.5 °C 1015.8 hPa SE 18.5 km/h 18.5 km/h 26 % 0.0 mm 473.0 W/m2 CLR
18:23 30.1 °C 8.4 °C 1015.8 hPa SE 20.4 km/h 20.4 km/h 26 % 0.0 mm 461.0 W/m2 CLR
18:28 30.1 °C 8.4 °C 1015.8 hPa ESE 20.9 km/h 20.9 km/h 26 % 0.0 mm 445.0 W/m2 CLR
18:33 29.8 °C 7.7 °C 1015.8 hPa SE 22.2 km/h 22.2 km/h 25 % 0.0 mm 429.0 W/m2 CLR
18:38 29.8 °C 7.7 °C 1015.8 hPa ESE 20.4 km/h 20.4 km/h 25 % 0.0 mm 415.0 W/m2 CLR
18:43 29.8 °C 7.6 °C 1015.8 hPa ESE 24.1 km/h 24.1 km/h 25 % 0.0 mm 401.0 W/m2 CLR
18:48 29.7 °C 7.6 °C 1015.8 hPa ESE 18.5 km/h 18.5 km/h 25 % 0.0 mm 383.0 W/m2 CLR
18:53 29.7 °C 7.6 °C 1015.8 hPa ESE 18.5 km/h 18.5 km/h 25 % 0.0 mm 367.0 W/m2 CLR
18:58 29.7 °C 7.0 °C 1015.8 hPa SE 18.5 km/h 18.5 km/h 24 % 0.0 mm 353.0 W/m2 CLR
19:03 29.6 °C 7.5 °C 1015.8 hPa SE 20.9 km/h 20.9 km/h 25 % 0.0 mm 338.0 W/m2 CLR
19:08 29.5 °C 7.4 °C 1015.8 hPa ESE 18.5 km/h 18.5 km/h 25 % 0.0 mm 322.0 W/m2 CLR
19:13 29.5 °C 7.4 °C 1015.8 hPa SE 20.4 km/h 20.4 km/h 25 % 0.0 mm 304.0 W/m2 CLR
19:18 29.3 °C 7.3 °C 1015.8 hPa SE 20.4 km/h 20.4 km/h 25 % 0.0 mm 290.0 W/m2 CLR
19:20 29.3 °C 7.8 °C 1015.8 hPa ESE 18.5 km/h 18.5 km/h 26 % 0.0 mm 287.0 W/m2 CLR
19:25 29.2 °C 7.7 °C 1015.8 hPa SSE 20.4 km/h 20.4 km/h 26 % 0.0 mm 267.0 W/m2 CLR
19:30 29.2 °C 7.7 °C 1015.8 hPa SE 18.5 km/h 18.5 km/h 26 % 0.0 mm 253.0 W/m2 CLR
19:35 29.1 °C 7.6 °C 1015.8 hPa SSE 24.1 km/h 24.1 km/h 26 % 0.0 mm 237.0 W/m2 CLR
19:40 29.0 °C 7.6 °C 1015.8 hPa SSE 22.2 km/h 22.2 km/h 26 % 0.0 mm 223.0 W/m2 CLR
19:45 28.9 °C 7.4 °C 1015.8 hPa SSE 18.5 km/h 18.5 km/h 26 % 0.0 mm 202.0 W/m2 CLR
19:50 28.8 °C 7.4 °C 1015.8 hPa SE 12.9 km/h 12.9 km/h 26 % 0.0 mm 185.0 W/m2 CLR
19:55 28.8 °C 7.9 °C 1015.8 hPa SE 16.7 km/h 16.7 km/h 27 % 0.0 mm 169.0 W/m2 CLR
20:00 28.7 °C 7.9 °C 1015.8 hPa SE 20.4 km/h 20.4 km/h 27 % 0.0 mm 151.0 W/m2 CLR
20:05 28.6 °C 7.2 °C 1015.8 hPa SSE 17.7 km/h 17.7 km/h 26 % 0.0 mm 135.0 W/m2 CLR
20:10 28.6 °C 7.2 °C 1015.8 hPa SE 14.8 km/h 14.8 km/h 26 % 0.0 mm 116.0 W/m2 CLR
20:15 28.5 °C 6.6 °C 1015.8 hPa SE 11.1 km/h 11.1 km/h 25 % 0.0 mm 102.0 W/m2 CLR
20:17 28.4 °C 6.5 °C 1015.8 hPa SE 14.8 km/h 14.8 km/h 25 % 0.0 mm 97.0 W/m2 CLR
20:22 28.4 °C 6.4 °C 1015.8 hPa SE 13.0 km/h 13.0 km/h 25 % 0.0 mm 83.0 W/m2 FEW
20:27 28.3 °C 6.4 °C 1015.8 hPa SE 11.3 km/h 11.3 km/h 25 % 0.0 mm 67.0 W/m2 FEW
20:32 28.3 °C 6.9 °C 1015.8 hPa SSE 11.1 km/h 11.1 km/h 26 % 0.0 mm 56.0 W/m2 SCT
20:37 28.2 °C 8.5 °C 1015.8 hPa SSW 14.8 km/h 14.8 km/h 29 % 0.0 mm 42.0 W/m2 BKN
20:42 27.9 °C 8.7 °C 1015.8 hPa SSW 18.5 km/h 18.5 km/h 30 % 0.0 mm 33.0 W/m2 BKN
20:47 27.6 °C 8.9 °C 1015.8 hPa South 16.7 km/h 16.7 km/h 31 % 0.0 mm 25.0 W/m2 BKN
20:52 27.4 °C 8.8 °C 1016.1 hPa South 18.5 km/h 18.5 km/h 31 % 0.0 mm 18.0 W/m2 BKN
20:57 27.1 °C 9.0 °C 1015.8 hPa South 5.6 km/h 5.6 km/h 32 % 0.0 mm 14.0 W/m2 BKN
21:02 26.9 °C 8.8 °C 1016.1 hPa South 11.1 km/h 11.1 km/h 32 % 0.0 mm 12.0 W/m2 BKN
21:07 26.7 °C 8.7 °C 1016.1 hPa South 5.6 km/h 5.6 km/h 32 % 0.0 mm 11.0 W/m2 BKN
21:12 26.6 °C 8.9 °C 1016.1 hPa South 9.7 km/h 9.7 km/h 33 % 0.0 mm 7.0 W/m2 BKN
21:17 26.4 °C 8.8 °C 1016.1 hPa South 7.4 km/h 7.4 km/h 33 % 0.0 mm 5.0 W/m2 OVC
21:22 26.2 °C 9.1 °C 1016.1 hPa SSW 9.3 km/h 9.3 km/h 34 % 0.0 mm 0.0 W/m2 OVC
21:27 26.0 °C 9.3 °C 1016.1 hPa South 14.8 km/h 14.8 km/h 35 % 0.0 mm 0.0 W/m2 OVC
21:32 25.8 °C 9.2 °C 1015.8 hPa SSW 13.0 km/h 13.0 km/h 35 % 0.0 mm 0.0 W/m2 CLR
21:37 25.7 °C 9.5 °C 1015.8 hPa SSW 9.3 km/h 9.3 km/h 36 % 0.0 mm 0.0 W/m2 CLR
21:42 25.6 °C 9.4 °C 1015.8 hPa SSW 11.3 km/h 11.3 km/h 36 % 0.0 mm 0.0 W/m2 CLR
21:47 25.4 °C 9.2 °C 1015.8 hPa SSW 13.0 km/h 13.0 km/h 36 % 0.0 mm 0.0 W/m2 CLR
21:52 25.2 °C 9.5 °C 1016.1 hPa SSW 18.5 km/h 18.5 km/h 37 % 0.0 mm 0.0 W/m2 CLR
21:57 25.1 °C 9.0 °C 1016.1 hPa SSW 18.5 km/h 18.5 km/h 36 % 0.0 mm 0.0 W/m2 CLR
22:02 25.1 °C 8.6 °C 1016.1 hPa South 20.4 km/h 20.4 km/h 35 % 0.0 mm 0.0 W/m2 CLR
22:07 25.1 °C 9.0 °C 1016.1 hPa SSW 14.8 km/h 14.8 km/h 36 % 0.0 mm 0.0 W/m2 CLR
22:12 25.1 °C 8.9 °C 1016.1 hPa SSW 14.8 km/h 14.8 km/h 36 % 0.0 mm 0.0 W/m2 CLR
22:17 24.9 °C 8.8 °C 1016.1 hPa SSW 9.3 km/h 9.3 km/h 36 % 0.0 mm 0.0 W/m2 CLR
22:22 24.8 °C 8.7 °C 1016.5 hPa SW 5.6 km/h   36 % 0.0 mm 0.0 W/m2 CLR
22:32 24.2 °C 9.0 °C 1016.5 hPa Calm     38 % 0.0 mm 0.0 W/m2 CLR
22:37 24.0 °C 8.8 °C 1016.5 hPa Calm     38 % 0.0 mm 0.0 W/m2 CLR
22:42 23.8 °C 8.7 °C 1016.5 hPa Calm     38 % 0.0 mm 0.0 W/m2 CLR
22:47 23.6 °C 8.8 °C 1016.5 hPa WSW 3.7 km/h   39 % 0.0 mm 0.0 W/m2 CLR
22:52 23.6 °C 8.8 °C 1016.5 hPa Calm     39 % 0.0 mm 0.0 W/m2 CLR
22:57 23.4 °C 9.0 °C 1016.5 hPa Calm     40 % 0.0 mm 0.0 W/m2 CLR
23:02 23.2 °C 8.9 °C 1016.5 hPa Calm     40 % 0.0 mm 0.0 W/m2 CLR
23:07 23.0 °C 8.7 °C 1016.5 hPa Calm     40 % 0.0 mm 0.0 W/m2 CLR
23:12 22.8 °C 8.8 °C 1016.5 hPa Calm     41 % 0.0 mm 0.0 W/m2 CLR
23:17 22.6 °C 8.6 °C 1016.5 hPa Calm     41 % 0.0 mm 0.0 W/m2 CLR
23:22 22.3 °C 8.8 °C 1016.5 hPa Calm     42 % 0.0 mm 0.0 W/m2 CLR
23:27 22.1 °C 8.6 °C 1016.5 hPa Calm     42 % 0.0 mm 0.0 W/m2 CLR
23:32 21.9 °C 8.8 °C 1016.5 hPa Calm     43 % 0.0 mm 0.0 W/m2 CLR
23:37 21.8 °C 9.0 °C 1016.5 hPa Calm     44 % 0.0 mm 0.0 W/m2 CLR
23:42 21.6 °C 8.8 °C 1016.5 hPa Calm     44 % 0.0 mm 0.0 W/m2 CLR
23:47 21.3 °C 8.9 °C 1016.5 hPa Calm     45 % 0.0 mm 0.0 W/m2 CLR
23:52 21.2 °C 9.1 °C 1016.5 hPa Calm     46 % 0.0 mm 0.0 W/m2 CLR
23:57 20.9 °C 8.8 °C 1016.5 hPa ENE 5.6 km/h 5.6 km/h 46 % 0.0 mm 0.0 W/m2 CLR
Lo Temps de Massalio
Compliments of Weather Underground - 1.25 mb